Theta_e
338 336 337 337 338 338 334 331 331 333 333 335 339 340 339 337 335 335 335 335 334 332 331 328 324 325 326 328 330 332 334 334 335 334 333 334 335 336 336 338 338 338 338
337 337 336 335 334 332 332 333 333 333 338 338 337 339 338 337 337 336 334 330 331 332 330 324 318 318 320 324 327 332 331 335 335 335 332 333 333 335 334 332 334 337 338
336 337 336 335 334 335 336 338 338 337 335 333 330 336 337 336 336 335 331 326 328 331 330 326 319 314 313 319 325 331 330 331 334 334 333 334 334 333 333 332 331 333 334
337 338 337 335 334 334 334 333 331 329 328 328 333 337 337 335 336 332 327 323 323 328 327 323 316 310 308 312 323 328 330 331 334 333 333 332 333 333 332 330 329 328 328
338 339 338 336 335 334 334 333 332 331 329 329 334 336 335 333 334 330 327 322 320 318 320 319 315 308 306 312 324 325 328 330 330 330 330 331 330 330 329 331 328 324 322
339 340 339 337 335 335 334 334 333 332 330 329 331 334 334 333 333 330 326 326 326 324 315 306 302 303 305 314 320 323 325 326 327 326 326 325 325 326 326 327 328 327 326
340 340 340 339 337 337 335 333 334 334 332 331 333 331 331 333 333 329 327 327 325 324 323 315 301 301 305 313 317 319 320 322 322 322 320 320 323 323 322 322 324 325 325
339 339 340 339 338 338 336 333 334 334 333 332 333 332 329 331 331 327 329 327 326 325 323 322 315 301 302 308 313 314 316 317 317 313 314 317 321 322 321 321 322 323 324
341 341 341 339 339 338 336 336 337 336 335 334 333 333 331 330 329 329 329 327 326 324 323 322 321 318 303 301 304 305 306 307 306 303 304 311 320 322 322 321 322 323 323
339 338 339 338 339 339 339 338 338 338 337 335 335 333 333 331 330 330 329 327 326 324 323 322 322 321 320 315 303 301 302 303 302 301 302 312 319 321 322 322 322 322 322
334 335 335 336 335 335 336 337 337 338 337 337 336 335 333 332 331 330 329 328 326 324 323 322 322 321 320 318 312 305 303 302 301 301 300 308 315 318 321 321 322 322 322
315 323 331 334 334 334 334 334 334 334 337 337 336 335 334 333 332 330 330 328 327 324 323 322 321 321 320 319 316 311 307 304 303 302 301 302 312 315 317 321 322 323 324
311 312 312 317 324 333 333 333 333 333 334 336 337 336 335 334 333 331 330 329 328 325 323 322 320 319 318 316 314 312 310 309 306 305 305 304 310 313 314 315 316 317 319
312 312 312 312 313 319 330 333 333 332 333 335 336 335 335 334 334 331 330 329 327 326 326 325 323 320 318 316 314 312 311 309 308 307 306 307 311 312 313 312 311 311 312
312 312 313 313 315 316 326 331 330 331 332 335 335 335 333 335 332 330 329 327 328 325 324 324 323 322 320 317 315 315 312 309 307 306 305 305 306 309 311 311 311 312 311
311 312 313 314 315 316 323 329 329 330 331 333 333 332 333 333 331 330 328 326 324 325 323 325 323 322 320 317 316 314 310 308 307 306 304 303 303 303 303 305 307 309 311
311 312 314 316 319 318 325 327 329 329 328 329 330 330 331 330 328 327 325 324 324 323 323 323 321 320 319 317 314 312 310 307 305 303 302 301 299 295 292 297 300 304 306
311 313 314 315 319 322 325 325 326 327 327 327 325 326 326 325 325 323 322 321 321 321 321 319 317 317 313 309 309 307 305 304 302 300 296 293 291 292 291 290 290 297 301
312 313 314 316 319 322 323 323 322 322 322 322 321 321 320 320 320 321 319 316 317 316 315 314 312 309 308 308 306 303 302 302 300 298 293 291 289 291 289 290 290 289 297
313 313 314 316 317 320 320 320 319 319 320 320 320 319 318 318 317 317 315 314 313 312 309 303 302 306 307 307 303 301 301 299 298 294 291 289 288 288 288 288 288 288 289
312 313 314 315 316 317 316 314 314 314 312 314 315 317 314 313 313 313 312 311 310 309 301 295 297 305 304 303 301 298 298 295 294 291 290 288 287 287 287 287 287 287 287
311 312 313 314 315 316 316 314 313 309 307 308 308 309 309 309 308 308 308 308 306 301 295 294 294 295 298 302 303 301 297 295 291 290 289 287 286 286 287 286 285 286 286
310 311 312 313 314 312 313 311 308 305 303 302 304 305 305 306 304 301 299 299 295 293 293 293 293 293 290 290 295 297 291 294 292 295 289 287 286 286 286 286 284 285 286
310 311 312 312 311 311 311 311 311 307 299 298 300 301 301 299 295 293 292 292 292 292 291 291 291 291 291 289 289 289 289 289 285 285 287 286 285 285 286 285 284 285 286
309 310 311 310 309 308 309 310 308 304 302 298 296 294 293 291 291 291 291 291 291 290 290 289 289 289 289 288 288 286 287 286 285 285 282 284 284 284 285 284 284 284 285
308 309 309 308 306 305 305 306 306 305 299 293 291 290 289 289 289 289 289 289 289 289 288 288 288 288 287 287 286 286 285 285 284 283 282 282 282 283 284 284 283 283 284
Wind_Speed
14 13 12 13 14 14 14 15 16 17 17 17 17 17 17 18 21 22 22 21 18 18 17 16 16 16 16 17 17 18 18 16 14 20 20 19 19 19 18 18 20 18 18
17 15 13 14 14 14 15 15 15 16 16 16 17 15 16 17 19 20 18 18 17 15 16 16 15 15 15 16 15 17 18 16 15 16 19 20 19 19 19 19 17 17 18
19 17 13 13 14 14 14 14 14 14 14 13 15 14 15 16 17 17 17 18 18 15 16 16 15 13 13 14 15 17 17 16 17 16 18 20 20 21 19 20 19 19 17
19 18 17 15 14 14 14 13 13 13 13 13 14 14 13 14 14 14 17 18 18 17 16 16 15 14 14 13 14 17 18 19 18 18 20 20 19 18 17 16 17 17 16
18 18 17 16 15 14 13 13 13 12 12 12 13 12 12 12 12 13 16 17 20 19 18 17 17 17 16 15 17 17 18 16 15 15 16 16 14 16 16 16 16 15 14
17 17 16 15 14 13 12 12 12 11 11 11 11 12 11 11 12 13 15 18 21 22 22 20 18 18 17 17 19 17 17 15 13 13 14 13 15 15 14 14 14 14 15
16 15 15 14 13 12 11 10 10 10 10 10 10 11 11 11 11 12 15 18 21 21 21 21 19 19 18 17 17 16 15 13 13 14 15 15 17 15 14 13 13 13 13
16 15 14 14 13 11 10 9 9 9 9 9 9 10 11 12 10 12 14 15 17 19 21 20 20 18 17 15 14 13 13 12 13 15 15 16 18 16 16 15 15 13 12
19 16 16 16 15 13 12 11 10 10 9 9 10 11 11 12 12 12 13 13 15 16 18 18 19 19 17 15 13 12 12 12 13 15 14 16 17 15 15 15 15 15 14
17 16 16 17 14 13 13 13 13 13 12 11 10 11 11 12 11 12 11 12 13 13 16 16 16 17 18 17 15 13 12 13 15 15 15 16 16 15 15 15 14 14 14
16 16 16 17 16 15 15 13 12 12 12 11 10 10 11 12 12 13 11 11 10 11 11 12 10 13 15 15 15 14 13 14 14 15 15 15 16 16 16 15 14 14 14
13 14 16 18 17 17 16 15 16 15 13 12 13 12 11 12 14 13 12 9 8 8 9 8 8 9 11 12 13 13 14 14 14 16 16 15 17 17 16 16 15 15 15
12 11 12 14 16 18 18 16 13 14 16 16 15 14 14 15 17 16 13 10 6 5 5 7 8 10 9 10 12 13 14 15 15 16 17 16 18 18 18 19 18 17 17
12 10 9 10 12 14 15 19 17 15 15 14 18 15 17 17 20 18 13 11 7 5 6 6 6 7 9 10 11 13 14 15 14 14 15 16 18 20 20 19 18 18 19
12 10 9 10 12 14 15 17 15 16 14 15 16 16 14 18 20 17 15 11 9 6 6 6 7 7 8 10 11 11 13 13 14 15 15 16 19 22 21 21 21 20 19
11 9 8 8 12 14 17 17 16 16 15 15 15 14 16 19 20 18 13 11 8 9 6 6 5 7 9 10 11 12 14 14 13 14 15 16 18 18 20 21 20 20 19
11 9 8 9 12 15 18 19 17 16 15 13 14 17 17 16 15 14 12 11 11 9 8 6 8 9 9 7 12 13 13 14 16 16 18 19 19 21 23 23 22 22 22
12 11 11 12 14 18 20 20 18 18 17 16 14 14 14 15 14 15 15 13 11 11 9 9 10 8 10 13 16 18 17 17 19 20 20 21 21 20 23 22 23 23 23
14 14 15 17 17 21 21 20 21 19 19 17 14 14 15 17 17 18 18 17 15 15 14 10 12 11 14 17 20 20 19 19 19 19 21 21 22 21 23 21 21 23 23
16 16 17 20 21 23 24 23 22 22 21 20 19 16 19 20 20 20 20 19 16 16 15 14 16 18 19 24 24 22 20 19 18 19 19 19 21 19 20 19 20 21 20
19 20 21 24 26 27 28 28 26 26 24 23 21 21 21 20 19 19 19 18 16 16 18 17 21 22 25 25 25 23 18 15 15 16 16 19 21 18 19 18 19 20 19
24 23 24 27 29 29 29 29 29 28 23 23 22 22 22 20 18 19 20 21 20 20 18 17 18 24 18 9 6 7 3 4 8 10 12 18 21 18 17 18 19 20 21
29 28 28 29 31 31 31 29 29 24 25 22 22 23 21 20 21 22 23 23 22 20 19 17 15 16 18 19 11 4 3 2 3 4 4 13 20 18 13 16 20 20 17
33 30 29 31 30 30 29 30 33 31 28 24 26 24 24 24 25 25 24 23 21 20 20 19 17 17 16 16 13 16 13 6 2 3 2 8 18 16 11 15 18 15 14
34 34 31 31 30 29 30 30 31 31 25 29 28 28 28 27 25 24 23 22 21 20 19 18 18 18 16 17 14 9 8 8 8 3 3 9 15 14 7 13 12 13 11
34 34 33 34 30 30 30 30 31 32 34 34 33 32 31 29 27 24 23 21 20 20 18 17 16 16 16 16 14 12 8 4 3 4 1 4 8 8 5 7 11 10 10
Wind_Direction
155 159 147 135 128 126 120 113 110 104 98 92 88 97 83 79 76 75 69 62 59 63 63 61 65 67 68 73 72 69 66 62 61 60 58 57 61 58 60 64 60 60 61
157 152 148 138 131 123 116 110 106 101 94 92 94 90 89 83 81 78 68 66 61 57 61 62 62 63 67 73 76 75 63 65 72 76 62 63 59 58 55 53 54 52 55
155 153 148 144 134 126 119 114 110 109 104 100 94 97 93 84 85 76 67 61 64 66 60 58 58 62 67 73 78 70 72 76 80 77 72 69 64 59 56 52 48 46 44
158 156 153 153 144 138 130 122 115 110 107 101 98 104 96 93 94 77 66 58 62 65 62 58 57 58 63 75 78 67 74 77 82 78 74 68 62 54 53 50 47 45 45
161 160 156 154 150 147 140 131 125 119 112 108 107 106 101 103 97 79 69 64 61 60 58 57 57 59 64 74 75 69 80 79 76 70 65 63 56 44 41 40 37 37 40
161 164 159 157 156 153 146 138 133 126 121 116 115 114 108 114 102 84 75 67 62 57 54 54 56 61 68 77 72 72 76 72 70 59 54 57 50 46 45 39 38 34 37
155 159 161 159 160 159 157 151 144 139 129 124 122 123 117 121 107 89 81 72 64 60 56 54 58 62 69 76 75 67 66 60 54 53 55 56 48 44 46 46 46 46 44
160 165 166 167 167 168 160 159 153 147 139 134 133 131 128 128 126 109 96 82 73 68 60 58 58 62 67 71 70 64 58 51 47 47 53 54 46 36 34 33 35 38 44
155 163 175 180 179 180 174 170 164 158 159 155 148 149 146 144 138 124 114 103 90 80 63 58 62 62 65 66 64 59 58 56 52 53 53 54 45 38 35 35 35 34 33
155 165 174 180 187 191 190 188 185 179 175 169 164 162 161 155 144 137 130 125 110 102 90 69 64 66 67 67 66 61 60 60 58 56 56 58 48 42 39 39 39 38 36
158 163 169 183 191 200 208 202 199 196 191 186 177 175 172 166 156 157 148 143 129 113 88 79 78 76 73 72 73 69 66 63 60 58 55 56 47 41 39 40 36 33 31
165 176 184 188 191 194 199 205 208 212 207 197 194 188 186 180 176 170 162 157 142 122 111 106 99 85 79 73 74 75 69 66 62 55 52 49 46 44 40 37 35 32 28
174 181 189 194 198 199 198 197 200 207 212 206 200 197 194 185 185 175 166 161 153 126 91 94 97 103 94 82 78 73 67 64 59 56 52 50 48 46 40 36 33 25 15
183 195 200 203 200 195 192 198 195 204 199 206 194 193 196 191 188 170 165 159 165 147 119 98 87 78 72 72 76 73 68 65 66 62 59 53 52 44 38 36 36 30 24
195 201 205 208 196 188 180 185 188 198 194 170 176 176 183 176 166 165 161 155 155 155 124 106 98 91 81 80 79 74 73 73 69 68 62 56 52 50 45 38 34 34 31
201 209 210 203 190 185 180 175 182 182 177 157 155 163 162 167 164 162 159 162 165 167 169 149 117 107 98 87 83 78 88 85 77 69 63 61 63 48 47 43 38 32 29
195 196 185 186 170 176 173 173 171 167 160 168 165 154 157 162 163 167 171 170 166 168 161 145 126 108 94 91 90 96 103 96 83 78 74 66 60 53 46 43 40 36 31
188 181 171 165 161 164 170 171 165 158 157 158 158 157 168 175 177 169 161 158 158 158 154 133 114 114 102 98 98 99 104 95 91 84 76 67 59 51 43 41 39 38 34
187 180 172 166 165 163 169 168 163 161 158 158 157 160 162 160 162 158 152 143 146 138 126 123 118 118 111 110 105 107 101 97 91 83 75 62 54 49 40 42 37 36 34
185 179 173 168 171 166 165 163 158 155 151 147 145 153 153 152 151 148 140 140 141 133 119 108 108 111 110 118 110 106 100 97 91 80 70 57 47 45 35 39 32 32 30
186 182 177 172 173 172 166 159 154 150 149 150 149 157 151 150 150 149 144 144 142 129 116 109 104 114 115 116 109 99 95 95 92 79 61 46 37 38 30 36 32 25 19
189 187 182 179 176 176 172 167 162 156 152 147 148 153 151 152 152 149 145 142 141 130 125 117 106 104 106 163 128 131 141 102 92 75 47 35 30 26 32 27 25 20 16
193 190 187 183 180 178 176 169 162 155 151 147 152 153 153 153 149 145 139 135 132 128 118 112 111 112 108 81 96 136 108 200 321 255 11 21 16 18 32 23 22 18 25
195 191 189 186 182 184 182 178 174 167 158 159 158 154 151 150 146 143 139 135 131 123 116 111 107 108 113 109 85 75 84 85 121 341 301 354 2 12 15 16 19 13 10
192 190 190 185 185 187 188 186 179 170 168 159 156 152 149 149 147 143 140 136 129 122 114 111 109 106 101 104 107 109 89 77 60 93 289 326 351 9 8 356 7 357 353
191 189 187 184 189 191 193 191 186 178 165 159 158 155 152 151 147 144 140 136 130 122 122 118 114 110 108 104 100 96 100 106 64 49 343 306 314 340 357 349 348 337 334